Location: 22
(39.7117°N, 89.5929°W)
Time: 08:11:58
(UTC-06:00)

deb Explorer IX - Visible Passes

Search period start: 27 January 2023 00:00
Search period end: 06 February 2023 00:00
Orbit: 533 x 1050 km, 38.8° (Epoch: 24 January)

Date Brightness Start Highest point End Pass type
(mag) Time Alt. Az. Time Alt. Az. Time Alt. Az.
27 Jan ? 06:10:17 10° SW 06:13:49 30° SSE 06:17:29 10° E visible
28 Jan ? 05:38:12 11° SSW 05:41:29 27° SSE 05:44:58 10° E visible
29 Jan ? 05:07:53 21° S 05:09:07 25° SSE 05:12:27 10° E visible
30 Jan ? 04:37:25 22° SE 04:37:25 22° SE 04:39:55 10° E visible
30 Jan ? 06:18:23 10° WSW 06:22:21 63° SSE 06:26:26 10° E visible
31 Jan ? 04:06:49 13° ESE 04:06:49 13° ESE 04:07:24 10° ESE visible
31 Jan ? 05:47:29 22° WSW 05:49:56 60° SSE 05:53:56 10° E visible
01 Feb ? 05:16:47 48° SSW 05:17:29 57° SSE 05:21:26 10° E visible
02 Feb ? 04:46:00 41° ESE 04:46:00 41° ESE 04:48:56 10° E visible
02 Feb ? 06:26:52 10° W 06:30:54 80° S 06:34:59 10° E visible
03 Feb ? 04:15:08 19° E 04:15:08 19° E 04:16:26 10° E visible
03 Feb ? 05:55:47 21° W 05:58:24 80° S 06:02:26 10° E visible
04 Feb ? 05:24:52 50° WSW 05:25:52 80° S 05:29:53 10° E visible
05 Feb ? 04:53:54 62° ESE 04:53:54 62° ESE 04:57:20 10° E visible
